Theta_e
281 281 281 280 280 278 278 278 278 278 277 276 276 275 275 274 273 273 272 270 270 269 268 268 268 267 267 266 265 265 264 263 263 263 263 262 262 262 261 262 263 263 262 262 263 264 264 263 262 262 262 262 261 261 261 261 260 260 260 260 260 258 260 259 259 260 264 265 264 263 264 265 263 262 262 262 262 263 265 263 262 262 263 262 263
281 280 280 279 279 279 278 278 277 276 276 274 274 274 274 274 273 272 271 270 269 269 268 268 268 267 266 266 266 265 264 264 263 263 262 262 262 262 262 263 263 263 263 262 263 264 264 263 262 261 262 262 261 261 260 260 260 260 259 260 260 258 260 259 259 259 261 263 263 265 264 265 261 264 261 261 261 262 261 262 262 263 262 262 262
280 279 279 278 278 278 278 277 276 275 275 274 273 273 273 273 273 272 271 270 269 269 268 268 268 267 266 266 266 265 265 264 263 263 263 263 263 263 263 264 264 263 262 262 263 264 263 262 261 260 261 261 260 260 260 259 260 260 259 259 259 259 258 259 258 257 258 260 263 262 263 262 262 262 262 261 261 261 260 261 262 262 262 263 262
279 278 278 278 277 277 277 276 275 274 274 274 273 273 273 272 272 271 271 270 268 269 269 268 267 267 266 266 266 265 265 265 264 264 264 264 264 263 263 264 265 264 264 263 263 263 263 262 261 260 261 260 260 259 259 259 259 259 259 258 258 259 258 258 259 259 257 257 261 262 262 260 261 262 262 261 261 261 261 261 261 261 262 262 262
278 278 278 277 277 276 276 275 274 274 274 274 273 272 272 271 271 270 270 269 269 268 268 268 267 267 266 266 265 265 265 265 264 264 265 265 265 264 264 264 265 265 264 264 263 263 263 263 261 260 260 260 260 259 259 258 259 258 258 258 257 258 258 258 257 257 257 257 258 261 260 260 261 261 261 260 260 261 261 261 261 261 261 261 261
278 278 278 277 277 277 276 275 275 274 274 274 273 272 272 271 270 270 269 269 268 268 268 267 267 267 266 266 266 266 265 265 265 265 265 265 265 265 264 264 265 265 265 264 263 264 263 263 261 261 261 261 260 259 259 258 258 258 258 258 258 257 257 257 257 256 256 255 256 256 258 258 259 260 261 260 259 259 260 260 260 259 259 260 261
279 278 278 277 277 277 277 276 276 275 275 274 274 273 272 271 270 270 269 269 268 268 268 267 267 267 267 267 266 266 266 266 265 265 265 265 265 264 264 264 265 265 264 264 263 263 263 263 262 261 261 262 261 260 259 259 258 258 258 258 258 257 257 256 256 255 255 255 255 256 256 258 259 258 260 260 260 259 258 258 259 257 258 259 259
278 278 278 277 277 277 277 277 276 276 275 275 274 273 272 271 271 270 269 268 268 268 267 267 267 267 267 267 267 266 266 266 266 266 265 265 265 264 264 264 264 264 264 264 263 263 263 263 262 261 261 262 262 261 260 259 259 258 259 258 258 257 256 256 256 255 255 255 255 255 257 256 257 259 260 260 258 258 257 256 257 257 258 259 260
277 277 277 277 277 277 277 276 276 275 274 274 273 273 272 272 271 271 270 269 269 268 268 268 267 267 267 267 267 267 266 266 266 266 265 265 265 264 264 264 264 264 263 263 263 263 263 263 262 262 262 262 263 263 262 261 259 258 259 258 258 257 256 256 255 255 255 255 255 256 256 257 258 258 258 258 257 258 259 258 257 258 258 259 260
276 276 276 277 277 277 276 276 275 275 274 273 273 273 272 272 271 270 270 270 269 269 269 268 268 267 267 267 267 266 266 266 266 266 266 265 265 264 264 264 264 264 263 262 262 262 262 262 262 262 262 262 263 263 262 262 262 261 260 258 257 257 256 256 255 255 255 255 255 257 256 257 258 258 258 258 258 258 257 257 256 258 259 259 261
275 275 276 276 276 275 275 275 275 274 274 274 273 272 272 271 271 270 270 270 269 269 269 268 268 268 267 267 266 266 266 266 267 267 267 267 265 264 264 264 264 263 263 262 262 262 262 262 262 262 262 262 262 263 262 262 262 262 262 261 260 258 257 256 256 257 256 256 257 257 256 256 258 258 258 258 257 257 256 257 257 258 259 258 257
275 275 276 275 275 274 274 274 274 274 274 273 272 272 271 270 270 270 269 269 269 269 268 268 268 268 267 267 266 266 266 267 267 267 269 271 266 264 264 264 263 263 263 262 262 262 261 261 261 262 262 262 262 262 263 263 263 262 262 262 261 261 261 260 259 258 257 256 257 257 257 257 258 258 258 257 257 257 257 258 259 259 259 258 258
275 275 275 274 274 274 273 273 273 273 273 272 272 271 271 270 270 269 269 269 269 268 268 268 267 268 267 266 266 266 266 267 267 268 270 272 270 265 264 264 263 263 263 263 263 263 262 262 261 261 262 263 263 262 262 262 263 263 263 263 262 262 262 262 262 261 260 258 257 258 258 258 257 258 257 257 257 257 258 259 260 260 260 259 258
273 274 273 273 273 273 273 273 272 272 272 271 271 270 270 270 270 270 269 269 268 268 268 268 268 268 267 267 266 266 266 267 267 268 268 272 272 266 264 264 264 263 263 263 263 263 263 262 262 261 262 262 263 262 262 262 262 262 262 262 262 262 262 262 262 262 261 260 258 257 259 258 258 259 259 258 258 258 259 259 260 259 259 258 258
273 273 273 272 272 272 272 272 272 272 271 270 270 270 270 270 269 269 269 268 268 268 268 267 267 268 268 267 266 266 266 267 267 268 268 272 272 268 264 264 264 264 264 264 264 263 264 263 263 263 262 262 263 263 262 262 262 261 261 261 261 261 261 261 261 261 261 261 260 259 259 260 259 259 259 260 260 260 261 260 260 259 258 257 256
273 272 272 272 271 271 271 271 271 271 270 270 269 269 269 269 269 269 268 268 268 268 268 267 267 267 268 267 266 266 266 267 267 268 268 271 272 267 264 264 263 263 263 264 264 264 264 264 264 264 264 263 263 264 263 263 262 261 260 260 260 261 261 261 262 262 261 260 260 260 260 260 262 261 261 261 262 262 260 259 257 256 254 253 254
272 272 272 272 271 271 271 271 270 270 270 269 269 269 269 269 269 269 268 268 268 267 267 267 267 267 267 267 266 266 266 267 267 268 268 270 271 267 264 263 263 263 263 264 264 264 264 264 264 264 264 264 264 264 264 263 261 261 260 260 260 260 261 262 263 263 263 263 263 267 268 269 270 270 270 267 263 261 257 255 254 252 252 252 254
273 272 272 272 272 271 271 271 270 270 269 269 269 269 269 269 269 269 268 267 267 267 267 267 267 267 266 266 266 266 266 266 267 268 268 268 270 267 265 263 263 263 263 264 265 265 265 265 265 264 264 264 265 265 265 264 262 261 260 260 260 260 261 262 261 262 264 264 264 264 264 264 263 262 262 262 262 260 253 254 254 252 252 253 252
275 274 273 272 271 271 271 271 271 270 270 270 270 269 269 269 269 268 268 268 267 267 267 266 266 266 266 266 267 266 266 266 267 268 268 268 269 267 265 264 263 263 263 264 265 265 265 265 265 265 265 265 265 266 266 264 262 262 261 261 260 260 261 262 261 260 259 258 259 258 258 258 258 257 257 259 259 259 256 255 254 251 252 252 253
278 276 274 272 271 270 271 270 270 270 270 270 270 270 269 268 267 267 267 267 267 266 266 266 265 265 266 266 266 266 266 266 266 267 268 268 269 268 266 264 263 263 263 263 263 264 265 265 265 265 265 265 266 266 266 266 263 263 262 261 260 260 263 262 261 260 259 259 258 257 256 256 255 254 253 254 255 255 256 254 253 252 252 253 253
279 277 275 272 270 270 270 270 270 270 270 270 269 268 268 268 267 267 266 266 265 265 265 265 265 265 265 266 266 266 266 266 266 267 268 268 268 268 267 265 265 264 264 264 264 264 264 264 265 265 265 266 266 266 267 266 265 263 263 261 262 263 263 261 260 261 259 257 257 256 255 254 254 253 253 253 254 254 254 255 254 253 253 253 253
280 278 276 274 273 271 271 270 270 270 269 269 268 268 267 267 267 266 266 266 265 265 264 265 265 265 265 266 266 266 266 266 266 266 267 268 268 269 267 266 266 265 265 264 264 264 264 265 264 265 265 266 266 266 266 267 266 265 264 264 264 263 263 261 260 258 257 255 254 254 254 253 253 253 252 253 254 255 254 253 253 253 254 254 254
280 278 276 274 273 272 272 271 270 269 269 268 267 267 266 266 265 265 265 264 264 264 264 264 265 264 264 265 266 266 266 266 266 266 267 267 268 269 269 268 268 267 266 265 265 265 266 266 265 265 265 265 266 266 266 266 265 265 265 265 264 263 262 260 258 257 255 254 252 253 253 252 252 253 252 253 254 253 253 253 253 253 254 255 255
280 277 275 275 274 273 272 271 271 270 269 269 268 266 265 265 264 264 264 264 263 263 263 264 264 264 263 264 265 265 266 265 266 266 266 267 268 268 269 269 268 267 267 266 266 266 266 266 266 265 265 265 266 266 265 265 264 264 264 264 262 262 260 258 255 254 253 252 252 252 253 252 251 252 253 253 253 254 254 254 254 253 253 254 254
280 279 278 276 274 273 271 271 270 269 269 269 268 267 265 265 264 263 264 264 264 264 264 264 263 263 263 263 263 264 265 265 265 265 266 266 267 268 268 269 268 268 267 267 266 266 266 266 266 265 265 265 265 265 264 264 264 263 262 262 261 259 257 255 255 251 251 253 253 253 253 253 254 254 254 253 254 253 252 253 252 253 252 252 253
280 279 279 277 275 272 270 270 269 269 268 268 268 268 266 265 265 264 264 264 265 264 264 263 263 263 263 263 263 264 264 264 264 265 265 266 266 267 268 268 268 267 267 266 266 266 266 266 265 265 264 264 263 263 262 262 262 262 261 261 258 258 254 253 251 251 253 253 253 253 254 252 252 252 253 252 251 252 250 251 251 252 251 251 251
279 279 279 278 276 272 270 270 268 268 268 267 267 267 266 265 265 264 264 264 264 264 264 263 263 262 262 262 263 263 263 263 264 264 264 265 265 266 267 267 267 267 266 266 265 265 265 265 264 264 263 263 263 262 262 261 260 260 259 257 256 255 255 253 254 253 253 253 253 253 252 251 251 252 252 250 251 251 250 252 250 251 251 250 250
279 279 278 278 276 273 271 267 267 267 267 267 266 266 266 265 265 264 264 264 264 264 263 263 262 262 262 262 262 263 263 263 263 263 263 264 264 265 266 266 266 266 265 265 265 264 263 263 263 262 262 261 261 260 259 259 258 258 256 254 254 253 255 256 256 251 252 252 251 250 251 250 250 251 251 250 250 251 250 250 250 251 250 250 248
276 277 278 277 276 272 271 270 268 267 267 266 266 266 265 265 265 266 267 267 266 265 264 264 263 263 263 263 263 262 262 262 263 265 264 265 264 264 265 265 266 266 266 266 264 263 262 261 261 260 260 259 259 259 259 258 257 256 255 253 251 250 249 250 251 253 252 249 250 250 252 250 251 249 250 249 250 250 249 249 249 249 250 247 248
274 275 276 276 276 273 271 270 269 268 267 266 266 266 265 267 267 266 266 266 267 267 267 265 265 265 264 265 265 264 263 264 265 265 265 265 265 265 266 266 266 266 266 265 264 262 261 261 261 261 260 260 259 259 259 258 257 255 252 254 252 249 249 249 250 252 250 250 250 249 251 250 250 249 248 249 250 249 249 252 249 248 247 247 247
272 273 274 275 274 274 272 270 269 268 267 267 266 265 265 266 267 267 267 267 266 267 267 267 267 266 265 264 266 267 266 266 265 265 265 265 265 265 265 266 266 265 265 264 262 262 261 260 261 261 260 260 260 260 259 258 256 254 253 251 250 251 252 250 250 250 250 250 250 249 250 249 250 249 249 249 250 250 248 247 247 247 246 247 247
271 272 272 274 274 272 271 270 268 267 266 266 266 265 264 264 264 266 267 267 267 267 267 267 267 267 267 266 266 265 266 266 265 265 265 265 265 265 265 265 265 265 264 264 261 261 261 261 261 261 260 259 259 259 258 257 255 254 251 250 252 250 251 252 251 250 250 249 249 250 249 249 249 249 249 249 250 249 248 248 246 247 247 247 247
270 271 272 272 273 271 269 268 267 266 266 265 265 265 264 264 263 263 265 267 267 266 267 267 267 267 267 267 267 266 266 266 265 265 265 265 265 265 265 265 265 265 264 262 261 261 261 261 261 261 260 259 259 258 257 255 254 252 250 251 251 250 250 251 250 248 249 250 249 249 249 249 249 249 250 249 248 248 247 247 247 246 246 246 247
271 271 271 271 271 271 269 268 267 266 266 266 265 265 264 264 264 263 263 263 264 266 267 267 267 267 267 267 267 267 267 266 266 266 265 265 265 265 264 264 265 264 263 261 261 261 261 261 260 260 260 259 257 255 254 253 252 251 250 250 251 249 250 246 246 250 249 249 249 249 249 248 248 247 247 246 246 246 247 247 246 246 246 246 246
271 269 268 268 270 270 269 268 267 266 266 265 265 264 264 264 264 264 263 262 262 262 263 265 266 267 266 267 267 267 267 267 266 266 265 265 265 264 264 263 262 262 262 262 261 261 261 261 260 260 259 258 257 254 255 252 251 250 251 251 249 249 247 247 249 247 249 248 247 247 247 248 246 247 247 247 246 246 247 247 246 246 246 246 246
270 270 270 270 269 268 268 267 267 266 265 265 265 265 265 264 264 264 264 263 263 263 263 264 265 266 267 267 267 267 267 267 266 266 266 265 265 264 261 261 261 261 260 261 261 261 261 261 261 260 257 257 254 253 253 253 252 252 250 250 250 250 249 248 249 249 249 248 248 248 248 246 246 246 244 243 244 246 246 246 246 246 246 246 246
269 269 269 269 268 267 266 266 266 266 265 265 265 264 264 264 264 264 264 263 263 263 263 264 264 264 266 266 266 267 267 266 266 266 266 265 265 263 262 262 261 261 260 261 261 261 260 261 260 257 255 255 254 254 251 252 251 249 251 249 249 248 249 248 248 249 248 247 246 245 245 246 245 243 244 245 245 245 245 246 246 247 247 247 248
269 269 268 268 267 266 265 265 265 264 264 264 264 264 264 264 263 263 263 263 263 263 263 263 264 263 263 264 266 266 265 265 266 265 265 264 263 263 262 262 262 261 261 261 261 261 260 260 257 257 255 254 253 251 251 251 250 249 249 249 248 249 252 250 251 249 247 246 245 245 245 245 244 243 245 245 246 245 246 246 245 245 246 246 245
268 267 265 264 265 265 265 264 264 264 264 264 264 264 263 263 263 263 263 263 263 263 263 263 263 263 264 264 264 265 264 263 263 262 262 262 263 263 263 262 262 262 261 261 260 260 259 258 256 255 254 252 253 251 251 252 248 249 249 248 248 247 248 248 247 247 246 246 246 244 243 244 242 241 243 243 244 244 245 245 245 244 245 245 245
267 267 265 264 265 265 264 264 264 264 263 263 263 263 263 263 263 263 263 263 263 263 263 263 263 263 264 264 264 264 263 262 262 262 262 261 261 262 262 262 261 261 261 260 260 259 258 257 255 255 254 252 252 252 250 250 249 249 248 247 249 248 249 247 248 246 247 246 245 244 243 243 242 241 240 241 243 244 244 245 245 245 245 245 245
267 266 264 264 264 264 264 264 264 264 264 264 264 263 263 263 263 263 263 263 263 263 263 263 263 264 264 264 264 264 264 263 263 262 262 261 261 261 262 262 261 261 261 259 259 258 257 256 254 253 252 252 251 251 250 249 248 248 248 248 248 249 248 246 246 245 246 244 245 244 243 243 243 242 243 244 247 247 245 245 245 244 245 245 245
267 266 265 265 264 264 264 264 264 264 263 263 263 263 263 263 263 263 263 263 263 263 263 263 263 264 264 264 264 264 264 263 263 262 262 262 262 262 262 262 262 262 261 260 258 257 255 254 253 253 252 252 251 250 248 248 248 248 248 248 249 248 248 248 247 246 245 245 244 244 243 243 243 243 245 249 243 242 242 243 243 244 244 244 245
266 265 265 265 264 264 264 264 264 264 263 263 263 262 263 264 263 263 263 263 263 263 263 262 263 263 263 263 263 263 264 263 260 262 262 262 262 262 262 262 262 261 260 257 255 255 254 254 253 252 252 253 252 252 252 251 250 249 248 248 249 249 249 248 246 246 245 244 244 244 244 243 245 244 242 243 243 242 243 242 243 243 244 244 244
266 265 265 264 264 264 264 264 264 264 264 263 263 264 264 264 263 263 263 263 263 263 263 263 263 263 262 262 261 262 263 263 263 262 262 262 262 262 262 262 261 259 257 255 253 253 254 252 252 252 250 251 250 248 250 250 250 250 249 249 249 249 248 247 248 247 247 246 245 245 244 243 244 243 244 245 242 242 244 242 243 244 244 244 245
266 265 265 264 264 264 264 264 264 264 263 263 263 263 263 263 263 263 263 263 263 263 263 263 263 262 261 261 261 262 262 263 262 262 262 262 262 262 262 261 260 259 257 254 252 252 251 252 252 250 249 249 248 248 249 249 248 250 250 251 250 250 251 249 249 248 247 246 246 245 243 243 243 241 242 243 243 242 243 243 243 245 245 244 244
265 265 264 264 264 264 263 263 263 263 263 263 263 263 263 263 263 263 263 263 263 263 263 263 263 262 261 261 261 261 262 262 262 262 262 262 262 261 261 260 259 257 255 255 252 253 253 253 252 251 252 250 249 248 248 247 248 248 248 248 251 252 251 249 245 245 245 246 246 244 244 243 242 243 245 243 242 243 242 242 242 243 244 244 245
265 265 264 264 264 264 264 263 263 263 263 263 263 263 263 263 263 263 263 263 263 263 263 263 263 262 262 261 261 261 261 262 263 262 262 262 261 260 259 257 257 256 253 253 250 253 252 252 252 252 251 248 248 249 248 247 246 247 248 247 247 247 244 244 246 246 246 246 245 244 244 244 244 244 244 245 244 243 243 244 243 244 244 245 245
265 265 265 264 264 264 264 264 263 262 263 263 263 263 263 263 263 263 263 263 263 263 263 263 263 263 262 261 261 261 261 262 262 262 262 262 261 260 258 256 256 254 251 251 250 251 251 251 251 251 251 250 249 248 248 246 246 246 246 246 246 246 246 247 244 243 244 244 244 244 243 243 243 242 243 243 242 243 243 244 244 243 244 245 245
265 265 265 264 264 264 264 263 263 263 263 263 263 263 263 263 263 263 263 264 264 263 264 264 264 263 262 262 262 261 261 261 262 261 261 260 258 257 256 255 253 253 252 252 251 251 251 250 251 250 251 250 250 249 248 248 247 247 246 247 247 248 248 248 246 243 246 245 244 243 242 242 242 242 243 243 243 243 243 242 242 244 244 244 245
265 265 265 264 264 264 264 264 264 264 263 263 263 263 263 263 263 263 264 264 264 264 264 264 264 263 262 262 261 262 262 261 261 261 260 257 256 254 254 253 253 251 252 252 252 251 249 248 248 248 249 248 248 249 247 249 248 248 247 247 248 249 249 249 248 247 247 243 245 243 244 243 241 241 242 242 241 241 241 243 243 245 244 245 244
265 265 265 264 264 264 264 264 264 264 263 263 263 263 263 263 263 263 263 264 264 264 264 264 264 264 263 263 262 262 261 261 261 260 257 256 254 253 253 253 253 251 250 251 250 249 248 247 248 249 248 249 248 249 247 249 248 248 249 249 249 249 249 249 247 248 247 245 242 243 243 243 242 242 242 241 240 239 243 244 245 244 244 244 245
Wind_Speed
8 10 8 9 10 10 10 9 11 9 8 8 9 9 9 9 10 11 8 12 11 10 9 9 9 8 8 7 8 9 8 8 7 8 8 9 8 8 9 10 9 6 6 7 5 7 6 7 7 6 6 7 5 5 5 4 4 3 3 4 4 5 5 4 5 10 7 4 4 3 2 3 4 2 5 6 8 7 8 7 7 7 7 7 8
9 9 8 8 10 10 10 9 9 8 8 8 9 9 9 9 10 9 13 15 15 11 10 8 8 8 8 8 9 9 9 8 7 7 9 10 10 9 10 11 8 7 6 7 7 5 6 9 7 9 9 6 6 6 5 5 4 5 4 4 4 6 4 5 4 2 10 2 5 4 4 2 5 0 5 10 10 9 10 8 7 6 7 7 8
7 7 8 8 10 10 9 8 8 9 10 9 10 10 9 9 9 11 13 13 9 8 9 9 9 8 9 7 8 8 8 10 9 9 10 11 12 10 8 9 10 10 10 8 9 7 8 7 8 6 7 8 5 5 5 4 4 4 5 4 4 5 4 4 4 5 8 9 1 3 3 1 3 7 5 6 9 8 10 9 8 8 6 7 8
7 7 7 9 9 8 9 8 9 9 11 10 11 11 10 9 9 10 11 11 12 7 7 9 9 8 9 9 8 8 8 7 8 8 9 10 9 11 12 10 7 7 7 9 9 9 9 9 8 8 7 6 7 5 5 4 5 4 5 4 4 6 5 4 5 5 3 6 7 2 3 5 5 3 5 6 8 9 6 8 7 7 7 7 7
6 7 8 9 8 9 9 8 10 11 11 10 12 11 10 9 8 10 9 10 11 8 7 11 10 8 9 10 9 10 9 9 9 10 9 7 8 7 8 10 8 9 11 13 9 10 10 9 9 9 8 8 6 6 5 8 5 5 5 4 4 4 4 4 4 4 6 10 9 3 2 6 5 6 5 6 8 7 6 8 7 7 8 7 7
7 8 8 9 9 10 10 10 11 12 12 11 11 11 10 9 9 9 10 11 10 11 12 10 9 13 11 12 11 7 8 9 10 9 10 8 8 6 6 7 7 13 13 13 11 12 14 15 10 9 9 10 8 6 7 8 6 6 6 5 4 4 4 4 4 4 6 8 8 10 3 4 7 3 2 3 7 12 12 6 5 6 6 10 7
7 8 8 9 9 11 11 11 11 11 11 11 9 8 9 9 10 10 10 11 11 12 12 12 12 12 13 13 11 12 9 8 9 9 9 8 8 8 7 7 9 12 13 11 12 13 13 13 13 11 12 7 8 9 8 7 7 7 7 6 6 5 5 4 4 4 5 6 6 6 8 5 3 10 6 5 7 6 10 12 11 3 5 8 14
7 8 8 9 10 11 11 10 10 10 9 8 9 9 9 9 10 9 9 10 11 12 13 13 12 11 11 12 9 10 8 8 8 8 9 9 8 9 8 9 10 9 11 7 7 10 12 12 11 9 8 10 10 8 9 8 6 6 5 5 6 6 5 4 4 4 5 6 7 7 4 6 7 7 7 5 6 4 3 3 13 14 11 7 7
7 7 8 9 11 10 8 8 8 8 8 8 9 10 10 10 10 10 10 10 10 11 11 10 10 11 11 8 8 10 8 10 9 9 9 9 9 9 10 11 13 14 9 10 7 7 9 10 11 8 8 8 8 7 8 6 8 8 6 6 7 6 5 4 5 4 6 6 9 4 5 6 8 7 8 5 4 8 8 5 10 9 10 13 9
7 7 9 10 9 7 7 6 7 7 8 10 10 10 10 10 10 11 11 11 10 10 10 10 11 12 12 10 8 7 8 6 10 15 13 8 8 7 8 9 14 14 12 8 7 7 7 6 8 11 12 11 10 11 11 10 10 10 8 9 7 7 5 6 6 5 6 9 9 5 7 9 9 6 6 5 4 5 7 7 11 11 11 12 12
6 7 10 9 7 6 6 7 7 9 9 9 8 9 10 10 10 10 10 10 11 10 10 12 13 10 10 10 11 9 7 8 18 19 20 20 10 9 9 9 10 8 8 9 9 9 7 6 6 10 10 10 10 12 11 12 12 12 11 10 8 14 9 7 6 7 7 8 5 5 7 9 11 6 6 6 4 5 7 8 9 10 9 12 17
7 8 9 6 6 6 7 7 8 9 8 9 9 9 8 9 10 10 10 11 10 10 11 12 12 9 10 9 8 9 8 15 21 21 22 25 18 11 8 7 8 7 8 9 6 7 7 7 7 6 7 8 7 9 11 13 13 13 13 13 14 14 11 10 8 7 8 8 8 9 6 9 9 6 7 3 6 5 6 8 9 8 10 11 11
6 7 7 6 6 7 6 8 8 8 9 9 8 8 9 9 10 10 12 11 9 10 12 11 12 11 12 14 12 8 12 19 21 23 24 26 26 15 8 8 8 9 9 9 8 7 7 7 7 6 6 12 9 8 9 10 13 14 13 14 14 16 16 15 12 9 4 7 8 10 8 6 6 8 3 2 2 9 10 9 8 8 8 9 13
6 7 5 6 6 7 7 8 8 8 7 8 7 8 9 11 10 9 8 8 10 11 11 12 12 12 13 14 14 16 17 16 22 23 24 27 26 18 10 10 9 8 9 8 8 8 8 7 7 7 7 10 8 9 10 8 7 8 8 8 8 12 15 17 17 18 13 10 9 12 10 5 9 7 5 3 7 11 10 11 9 8 8 11 13
6 6 6 6 5 6 7 8 8 7 7 8 8 9 10 9 9 9 9 10 11 12 12 12 11 12 12 12 13 17 15 17 23 24 24 27 25 19 11 8 7 6 5 8 8 11 12 10 9 7 7 9 8 10 9 9 8 7 7 8 8 9 8 9 11 11 10 10 12 13 13 9 9 9 8 8 10 11 9 11 10 8 11 11 10
7 5 6 6 7 7 7 7 8 7 8 8 9 10 10 10 11 9 8 8 8 7 8 8 10 12 12 12 11 16 15 19 22 24 25 26 25 12 12 9 9 7 12 11 10 10 10 9 7 10 10 8 10 14 11 6 8 9 8 8 7 6 7 9 12 11 10 10 10 11 11 10 12 11 11 10 8 6 5 5 6 8 9 11 11
7 7 7 7 7 7 7 8 8 8 8 9 10 10 11 10 9 7 9 9 9 9 10 10 9 9 10 12 11 11 17 18 21 23 24 27 21 9 11 8 8 7 11 11 10 10 10 11 10 10 9 8 11 15 15 12 8 9 8 7 6 5 7 7 13 16 17 17 18 20 20 20 19 19 19 18 12 7 6 7 8 4 7 11 14
7 6 8 8 7 7 7 8 9 9 9 11 11 11 10 8 9 8 10 10 10 10 9 8 8 8 9 12 14 11 14 16 21 22 24 26 20 10 10 10 9 8 10 10 8 9 11 14 11 8 7 8 11 15 16 13 9 8 7 7 9 8 8 5 5 8 13 14 15 17 16 14 13 14 15 14 13 8 3 9 7 4 8 5 10
8 7 8 7 6 7 7 8 9 9 10 11 11 11 10 10 8 7 8 8 9 7 7 7 7 7 8 10 14 14 14 13 19 23 25 24 19 9 10 8 8 8 9 9 10 8 9 11 14 10 10 10 12 15 16 14 9 9 8 6 9 8 8 4 5 5 4 4 6 5 7 8 7 6 7 11 11 9 6 9 7 5 8 8 8
9 7 6 5 5 6 6 8 9 10 11 10 9 10 7 6 7 8 8 7 7 7 7 7 8 7 7 9 10 13 13 12 15 24 24 24 24 11 9 9 11 12 9 8 8 9 8 7 10 15 14 13 14 15 16 16 10 8 6 7 7 11 3 5 4 4 4 5 6 4 7 6 6 4 5 6 6 5 7 8 7 6 7 8 7
8 8 7 5 5 6 6 7 10 10 9 9 7 6 6 7 7 7 8 6 6 6 7 7 7 7 7 8 9 11 12 12 13 22 24 24 25 18 9 10 10 11 11 10 8 8 8 8 7 13 17 16 15 16 15 16 12 8 10 9 11 4 2 3 3 5 5 5 6 5 6 5 5 5 5 5 5 6 6 7 6 5 6 7 8
7 7 7 7 6 6 7 7 8 8 6 6 6 7 6 6 7 7 7 7 8 8 6 6 7 7 7 8 9 10 11 15 11 18 23 24 25 24 12 12 12 10 10 10 9 9 9 7 8 10 16 17 16 15 16 14 15 9 9 11 9 8 7 4 3 3 4 5 5 6 6 5 6 6 5 5 6 7 7 6 4 5 6 6 7
8 7 7 7 7 8 7 8 8 6 6 7 7 8 6 6 6 7 7 7 8 9 8 7 7 7 7 7 7 9 9 11 16 14 21 24 25 25 21 14 13 10 10 11 11 9 8 8 7 9 14 16 15 15 14 14 12 10 11 10 9 8 6 4 3 4 5 5 5 7 6 5 6 6 5 5 6 6 6 4 5 6 6 7 7
7 8 8 8 8 7 7 7 7 7 8 7 7 7 7 7 7 7 8 8 7 8 7 7 8 8 8 7 6 7 8 8 13 17 16 24 23 25 24 18 13 11 9 8 7 8 7 8 8 11 12 13 15 14 14 12 8 9 9 9 7 5 4 4 3 5 5 6 6 7 7 6 5 5 5 6 6 5 6 5 7 6 6 7 9
9 10 10 8 7 7 6 6 7 7 7 8 8 8 8 8 8 6 7 8 8 8 8 8 9 8 7 8 8 8 8 8 8 13 17 18 23 23 25 21 13 13 9 7 5 7 7 8 9 10 10 11 12 11 10 10 10 8 8 7 5 3 4 5 5 3 5 7 7 7 6 6 6 6 5 5 5 4 4 5 5 6 6 7 9
12 13 12 9 8 6 6 7 7 7 8 8 8 8 10 10 8 8 7 8 8 8 8 7 8 8 8 8 8 9 8 8 8 9 12 13 15 20 21 20 13 12 10 7 8 8 9 9 10 9 9 8 6 6 5 5 7 7 7 6 4 5 5 6 4 5 7 7 6 7 7 4 4 4 4 4 4 5 4 4 5 7 5 7 8
14 13 12 11 7 5 7 7 7 8 8 8 7 7 7 11 9 9 7 8 8 8 8 8 8 8 8 8 7 8 8 8 8 8 9 10 10 11 12 13 13 11 8 6 7 6 7 7 5 6 5 7 7 5 5 4 4 5 5 5 5 6 6 6 7 7 7 6 7 6 5 5 3 3 5 4 5 5 4 5 5 7 5 6 7
13 13 14 11 9 6 7 8 8 9 9 10 10 9 7 7 6 8 8 11 10 9 9 9 9 9 9 8 7 7 8 8 9 9 9 10 9 9 9 9 10 9 8 7 6 6 6 5 6 4 4 4 4 3 3 4 4 4 5 5 6 6 6 5 5 4 6 5 5 4 5 3 4 5 5 4 5 5 3 4 4 7 5 6 6
15 15 13 10 9 7 6 6 8 9 8 5 6 11 12 11 9 9 8 8 10 10 10 9 9 8 7 8 8 8 8 9 11 10 10 12 12 11 10 10 8 8 10 9 6 6 6 5 4 4 5 5 4 4 4 5 5 5 5 5 6 5 4 6 6 7 7 4 6 6 6 3 5 4 4 5 5 5 3 4 5 6 6 3 7
16 15 13 11 10 8 6 6 6 7 8 8 8 7 6 9 8 8 7 8 8 9 9 9 9 8 7 8 8 10 12 10 9 15 15 16 16 15 12 13 13 10 9 12 8 6 5 5 5 6 6 6 6 6 6 5 5 5 6 5 5 5 5 6 7 6 4 5 5 4 5 4 6 4 4 5 6 5 4 5 5 4 5 5 8
13 13 13 11 11 9 6 6 5 6 6 6 6 6 5 6 10 11 7 8 11 11 11 10 8 11 9 7 7 9 4 8 15 17 16 16 17 17 16 14 12 11 12 10 7 8 7 7 7 7 6 6 6 7 6 5 6 6 6 4 4 4 5 5 7 5 5 4 4 4 4 4 6 4 4 5 5 6 5 4 4 5 5 6 7
13 12 12 12 12 8 6 5 5 5 5 6 6 6 6 5 4 8 10 8 11 13 12 12 11 12 13 10 7 6 7 11 16 18 19 19 17 15 13 14 14 13 13 12 7 6 6 7 7 7 6 7 7 5 5 6 6 6 4 3 6 4 5 7 5 5 4 4 5 6 5 6 5 4 4 5 6 6 5 5 5 5 6 5 7
15 14 12 12 11 8 6 5 5 5 6 6 6 7 7 7 5 4 6 10 11 12 13 13 12 11 13 13 13 9 9 12 17 19 20 20 19 17 15 14 13 13 13 8 8 7 7 7 7 6 6 8 7 6 6 6 6 6 7 6 4 4 6 4 2 4 4 6 4 6 4 4 3 5 5 5 5 6 5 5 5 5 5 7 7
15 12 11 12 12 9 7 5 5 5 5 5 6 6 6 6 6 6 5 5 6 9 12 14 14 14 13 14 14 13 13 15 16 17 18 19 21 18 16 13 14 13 11 8 8 8 7 7 7 7 6 6 5 6 6 6 6 6 4 6 6 4 4 1 2 5 4 5 5 5 3 3 4 4 6 4 5 4 6 6 5 5 6 6 8
13 12 15 11 8 8 6 4 4 4 4 5 5 5 5 4 5 6 7 6 7 6 6 8 12 14 10 10 12 13 13 15 15 15 18 19 20 19 17 10 9 8 8 7 7 7 6 7 7 7 6 7 6 6 6 5 5 5 6 6 5 4 3 3 5 4 5 4 4 4 5 4 5 5 4 5 5 6 6 5 5 5 6 7 6
12 10 10 11 8 7 5 4 3 3 4 4 3 4 3 4 5 5 4 6 5 5 5 5 6 9 12 9 11 12 12 13 13 15 17 18 18 17 11 9 8 9 10 9 8 8 7 7 7 6 6 6 5 6 6 6 6 6 6 5 5 6 5 5 6 5 4 6 6 4 4 4 6 5 3 3 5 6 6 6 6 5 5 6 6
11 9 9 9 8 5 4 2 1 1 1 2 3 3 3 4 3 4 4 4 5 4 4 5 4 5 7 5 9 10 11 11 13 13 15 15 18 13 9 10 10 9 9 9 9 8 9 8 6 5 6 6 6 6 6 6 5 5 4 6 5 4 6 6 5 6 5 5 5 4 4 6 5 4 4 5 5 6 5 5 5 6 6 7 6
11 9 9 10 8 5 2 1 1 2 2 3 2 3 3 4 4 4 4 4 4 5 5 5 5 7 10 7 8 7 8 10 11 10 10 12 11 9 8 8 8 9 9 8 9 9 9 7 6 7 6 6 6 6 6 5 6 6 6 4 4 6 6 5 6 5 5 4 4 6 6 6 4 4 4 4 6 5 5 5 5 6 6 6 4
9 10 10 10 6 3 1 1 1 2 2 2 2 3 3 3 3 3 3 3 4 5 4 4 5 5 6 5 6 7 8 6 6 6 6 7 8 8 7 7 7 7 7 7 7 8 7 7 6 6 5 6 6 6 6 6 4 6 5 5 4 4 5 5 6 6 5 6 5 5 5 6 4 4 4 5 5 5 5 5 5 5 6 7 6
9 8 6 7 3 2 1 1 1 1 1 2 2 2 3 3 4 3 3 4 5 4 4 5 5 5 5 6 6 7 7 6 6 6 6 7 7 7 6 7 7 7 7 7 7 7 7 6 6 6 6 6 6 6 5 5 5 5 5 6 6 6 7 6 7 6 6 6 6 5 5 5 4 3 3 4 5 5 5 5 5 4 5 6 7
9 7 5 5 3 2 2 1 0 1 1 1 2 2 2 2 2 2 4 4 3 3 4 4 4 4 5 7 9 9 6 6 5 6 6 7 6 7 6 6 6 7 6 6 6 6 6 6 6 6 6 6 6 5 5 6 4 4 5 6 5 6 5 5 6 6 6 4 6 5 4 5 4 4 5 6 5 4 5 4 4 5 5 5 6
8 7 5 4 3 2 1 1 0 0 1 1 2 2 2 1 2 3 3 3 2 3 3 4 3 3 6 11 11 10 6 5 6 5 6 6 6 7 6 6 6 6 6 6 6 6 6 6 6 6 6 6 5 5 4 6 6 6 6 6 6 6 6 6 6 5 5 6 5 6 4 5 4 5 5 4 4 4 5 5 5 4 5 5 6
8 6 5 3 4 3 2 1 0 0 1 1 2 1 1 2 3 2 2 2 3 3 3 4 4 4 6 9 10 9 5 5 5 6 6 6 6 5 6 6 5 5 4 5 5 6 6 6 6 6 6 7 6 6 7 7 6 6 6 6 7 7 6 5 5 5 5 5 6 5 5 5 5 4 4 4 4 3 5 4 4 4 5 5 5
7 5 4 4 3 2 1 0 0 0 1 0 1 1 2 2 2 2 2 3 3 3 3 4 4 4 4 5 6 6 5 5 5 5 5 5 5 5 5 5 4 5 5 5 5 6 6 6 6 6 4 5 5 4 6 6 6 6 6 7 7 6 5 5 6 6 6 6 6 5 6 4 4 4 4 4 3 4 5 3 4 5 5 5 6
6 5 4 4 3 3 2 0 1 0 1 1 1 1 1 2 2 2 3 3 2 3 3 4 4 4 5 5 6 6 5 4 4 4 5 6 6 5 5 5 5 5 5 5 5 5 5 6 6 5 4 4 4 5 6 6 5 6 6 7 6 7 6 7 7 6 6 6 6 5 4 6 6 4 5 5 3 4 4 4 4 4 5 5 5
6 4 4 4 3 2 1 1 0 1 1 2 2 2 1 1 2 2 2 3 3 3 3 4 4 5 5 6 5 5 5 4 4 5 4 5 5 5 4 5 5 5 6 6 6 5 6 6 5 5 6 5 5 6 6 5 6 6 5 5 6 6 6 5 3 5 6 6 6 6 5 4 4 4 5 4 4 3 4 4 3 3 4 6 6
6 4 4 3 3 2 1 1 1 2 2 2 2 2 2 2 3 3 2 3 4 3 4 4 5 5 5 5 6 6 5 6 5 5 5 5 5 5 5 4 5 5 5 6 5 6 6 6 6 6 5 4 4 5 6 6 6 6 5 5 4 3 3 4 6 5 6 6 5 6 5 4 4 3 5 2 3 3 3 4 4 4 5 5 6
5 4 3 3 3 3 2 2 2 1 1 1 2 1 2 2 2 2 2 3 4 3 4 4 4 5 4 5 5 5 5 5 5 4 4 4 4 5 5 5 6 5 5 6 5 6 5 5 5 5 5 4 5 5 6 5 5 6 5 4 5 5 5 5 5 4 5 5 5 5 5 5 4 4 3 3 4 3 3 5 3 3 5 5 6
5 4 3 3 3 3 2 2 1 2 2 1 2 2 1 2 2 3 3 3 3 4 4 4 4 4 5 5 5 5 5 4 5 5 4 4 4 5 6 5 4 6 6 6 6 5 6 5 5 5 6 5 6 6 6 5 5 5 4 5 5 7 8 7 5 5 6 6 5 5 4 3 4 4 3 3 4 3 4 4 3 4 4 4 5
5 4 3 3 3 3 2 2 2 2 2 2 2 2 3 2 3 2 2 3 4 4 4 4 4 4 5 5 4 5 6 6 6 6 5 4 4 4 5 5 5 5 6 5 5 6 5 4 4 4 5 5 5 6 5 6 5 6 5 6 7 8 8 9 7 7 7 5 6 6 6 5 4 4 4 4 3 3 4 4 4 5 4 5 5
6 5 3 3 3 3 3 3 2 2 2 2 2 2 2 2 3 3 3 3 4 3 4 4 4 4 5 5 4 6 6 6 5 5 6 6 5 5 5 5 6 5 4 5 5 5 4 4 5 5 5 5 5 6 5 5 5 5 6 7 9 9 9 8 6 7 8 5 5 6 5 4 4 4 4 4 3 3 7 4 4 4 4 4 5
Wind_Direction
211 217 207 212 209 207 209 205 209 206 200 194 198 199 198 196 196 196 172 173 162 174 174 183 180 177 174 177 181 190 194 193 189 181 182 181 179 176 171 180 180 167 160 159 170 155 147 129 139 138 142 139 141 140 139 143 142 127 117 120 122 132 136 137 197 280 285 225 234 233 204 279 290 208 297 307 310 307 306 295 293 291 292 290 294
215 216 211 210 210 212 209 204 202 195 195 193 200 197 197 195 194 181 187 174 164 175 177 172 167 169 173 181 182 185 191 195 190 187 191 186 184 178 179 181 174 171 163 160 164 164 147 142 141 149 160 135 136 147 143 148 166 142 148 145 151 150 175 136 199 212 287 250 275 217 251 209 271 264 337 320 311 313 308 307 298 287 292 296 294
215 212 210 210 214 213 206 201 193 194 195 195 201 199 198 194 186 193 190 177 179 171 177 168 167 164 177 181 179 181 185 189 190 194 199 196 190 181 175 179 176 169 173 171 164 152 149 147 149 143 148 142 150 143 140 159 157 146 144 153 147 159 170 184 154 226 262 295 202 291 174 242 259 294 315 296 294 297 302 308 307 303 288 289 290
214 207 211 216 215 209 207 200 192 195 199 200 203 202 196 190 184 190 193 189 169 186 170 162 161 172 179 180 179 174 178 179 182 192 202 200 191 184 186 189 185 177 161 156 159 165 158 147 159 158 152 144 156 153 166 162 167 153 148 157 154 161 171 177 210 215 249 281 289 228 317 339 290 258 300 283 282 300 290 290 291 290 292 284 280
207 212 211 216 212 209 210 198 199 201 204 202 206 200 195 188 185 188 181 190 192 173 178 165 173 176 184 181 176 180 179 177 181 189 196 197 196 188 184 185 178 178 166 161 166 162 166 167 152 155 158 152 157 164 169 177 167 159 153 159 170 166 157 181 196 200 230 250 280 279 3 289 256 284 313 317 313 302 302 303 302 296 294 276 279
210 210 211 214 216 212 211 204 205 206 206 207 205 199 193 189 186 187 184 188 186 192 193 194 184 199 194 198 195 177 173 180 183 184 187 179 186 186 186 187 173 167 165 168 169 172 167 157 160 158 164 171 168 162 167 177 162 168 161 167 162 155 168 180 184 205 225 255 254 302 354 346 316 247 324 335 324 318 315 303 292 294 299 304 286
214 214 213 216 219 217 213 212 208 208 207 208 200 193 193 192 186 189 188 187 186 190 194 195 197 199 200 199 199 197 188 179 184 183 182 172 178 173 179 182 172 173 176 167 169 171 168 161 156 171 173 172 160 169 170 171 172 174 175 168 159 165 178 184 182 201 226 258 269 243 284 299 271 302 319 333 300 285 302 317 311 261 282 296 310
219 221 219 223 223 222 218 214 210 211 207 201 196 195 192 190 193 192 183 189 192 194 193 197 198 199 199 200 186 189 172 179 182 186 183 176 170 178 176 180 177 176 172 173 172 178 175 177 162 170 179 167 159 166 169 171 162 169 173 152 160 163 180 176 183 202 227 245 251 274 260 292 295 266 280 306 311 289 204 301 305 314 312 287 277
222 224 225 230 230 226 222 214 211 208 202 197 196 196 195 195 192 189 191 195 196 197 196 192 191 195 200 196 177 193 175 185 183 183 176 178 180 178 180 181 182 171 167 166 172 172 180 179 170 171 176 179 186 179 188 169 158 166 178 156 166 165 172 179 188 189 231 249 267 250 266 270 271 292 306 304 290 292 310 306 287 289 296 304 294
219 224 228 233 233 227 221 214 208 205 200 202 202 198 195 194 192 194 197 197 196 192 192 193 194 196 197 193 173 179 186 175 185 185 184 173 176 179 174 181 177 171 162 164 171 179 183 176 182 183 187 188 188 193 194 195 197 174 160 167 165 166 171 171 195 193 223 236 247 257 270 271 277 273 276 269 285 297 296 295 296 303 306 295 289
222 225 235 233 231 222 216 215 205 209 208 206 202 198 198 194 195 198 197 196 197 193 192 195 198 191 183 182 182 182 179 185 194 195 191 192 178 176 184 182 178 173 177 169 177 177 179 170 167 187 188 190 193 196 196 199 200 202 193 187 179 175 161 181 203 194 213 241 247 237 245 269 274 269 268 283 287 272 282 290 288 303 314 325 319
229 233 236 235 223 215 214 210 209 214 205 208 203 202 196 195 198 197 196 197 198 195 198 202 201 195 193 191 179 182 175 195 195 195 196 199 186 180 176 179 177 180 178 184 178 167 165 167 174 176 187 185 181 196 202 205 204 203 203 200 200 203 200 191 199 204 212 230 247 243 244 248 271 280 279 289 287 288 273 281 286 298 304 305 300
239 243 240 227 225 216 211 210 214 211 210 207 203 196 197 200 199 197 202 200 192 198 204 199 204 203 202 204 203 179 195 195 194 193 198 204 196 183 169 174 178 184 183 183 173 168 161 160 167 183 188 190 192 193 192 203 208 206 207 210 212 210 216 223 225 227 195 218 237 257 231 254 265 265 229 233 278 291 294 286 280 281 288 287 289
239 251 247 233 226 217 213 212 214 214 205 202 198 201 200 206 204 202 197 192 200 204 204 205 205 205 204 206 185 161 188 195 195 196 198 205 201 186 172 176 186 182 184 176 174 173 163 159 172 184 179 190 195 190 194 195 193 200 207 208 206 220 223 226 230 233 227 231 237 250 254 199 249 264 268 288 290 282 286 288 297 289 284 277 289
261 254 251 242 227 222 216 213 217 211 202 198 200 206 206 208 204 200 196 200 201 204 204 206 207 207 207 207 196 178 200 195 195 197 199 206 204 186 179 168 174 175 167 189 184 185 188 186 187 176 164 187 194 192 184 193 191 201 204 213 219 222 224 226 230 231 226 229 234 242 256 248 253 266 267 260 254 261 268 279 292 291 292 290 278
264 260 253 245 231 224 214 217 217 209 201 198 203 208 208 207 206 199 197 204 207 204 212 207 208 209 208 205 189 194 196 195 194 197 200 206 207 185 184 170 182 174 200 204 203 200 196 193 183 199 195 188 194 194 194 168 189 199 211 221 227 226 228 224 236 233 226 231 233 239 246 247 252 253 252 248 248 251 272 290 304 300 302 300 294
261 253 251 247 237 224 214 214 214 208 202 203 208 210 209 210 207 190 197 203 202 204 209 207 208 208 205 206 191 192 190 198 194 196 200 205 207 180 181 173 178 176 199 197 199 199 198 200 201 200 195 194 190 195 199 189 193 200 206 219 225 233 238 227 232 233 232 233 239 249 254 260 271 283 292 303 312 307 318 312 291 292 306 307 302
268 256 252 248 237 226 217 212 215 208 202 209 211 214 212 209 205 190 197 200 205 208 205 206 207 204 201 206 204 196 196 199 194 198 201 203 205 183 178 184 182 184 193 199 196 200 204 202 197 192 177 191 182 192 196 188 193 195 193 215 242 243 252 227 222 230 236 242 245 253 263 274 281 284 284 283 286 294 273 271 273 326 284 272 288
289 272 262 249 235 227 220 214 216 212 212 216 211 212 207 207 199 184 200 200 208 200 198 202 203 202 202 203 205 204 205 199 195 202 204 202 204 184 183 178 182 184 189 196 201 199 199 200 195 192 198 198 187 193 195 189 193 198 194 204 235 241 249 190 207 226 238 249 263 266 276 272 274 276 274 275 274 275 247 247 264 256 275 282 288
294 286 276 261 234 226 218 217 220 216 220 220 214 216 205 188 185 189 196 197 201 195 196 197 198 202 196 199 201 204 203 200 196 202 202 202 201 192 186 184 196 194 193 181 185 198 195 190 196 200 200 196 193 198 198 197 193 190 177 209 222 250 221 190 202 208 238 238 264 256 264 270 275 268 267 266 266 254 245 234 230 226 253 274 282
295 293 288 275 248 231 222 217 222 223 220 220 214 211 197 194 184 186 190 190 190 193 196 196 195 198 194 201 202 202 201 198 196 200 202 201 200 198 193 197 198 197 197 194 193 190 191 192 193 201 205 203 201 202 202 204 201 198 204 217 223 220 129 208 213 220 255 271 276 280 274 282 276 267 264 263 265 258 251 246 231 219 235 265 286
296 294 283 273 260 240 230 228 223 225 218 206 203 210 202 186 187 186 185 185 192 200 194 193 195 199 197 201 203 201 199 197 191 198 201 201 200 201 198 205 202 194 196 200 200 201 198 189 202 195 195 202 201 203 209 210 211 210 219 222 231 234 250 248 255 263 266 277 288 286 286 288 286 282 275 264 260 256 244 249 244 241 236 238 251
303 300 291 278 263 248 239 227 222 211 210 202 202 207 184 180 183 180 181 185 193 197 193 192 195 201 200 205 202 198 194 196 195 196 200 202 201 203 206 209 193 191 196 200 198 194 191 197 196 167 191 200 202 206 211 213 215 224 225 224 223 231 238 251 266 279 282 279 284 279 279 273 275 277 276 274 267 255 261 265 261 259 262 258 258
306 299 291 281 273 260 245 233 222 211 207 197 198 195 185 184 179 183 182 184 188 193 194 191 199 202 203 200 191 194 194 192 197 199 199 202 203 204 210 211 192 198 197 202 189 189 187 190 190 176 182 195 203 206 210 211 210 217 218 220 224 227 231 251 262 261 273 275 271 268 267 259 249 269 263 258 268 275 280 280 277 277 271 274 271
312 305 300 287 271 263 245 234 221 212 207 192 195 190 185 174 181 186 181 190 191 192 197 194 200 203 201 202 194 190 193 191 194 201 199 199 204 206 212 213 204 188 190 190 175 182 179 164 159 164 175 183 194 199 204 207 206 207 212 216 217 212 225 230 238 245 256 253 251 255 264 256 242 248 267 275 280 294 297 292 283 279 275 274 271
313 307 304 295 279 255 241 238 221 213 205 196 201 192 185 178 182 176 179 193 198 197 195 191 199 201 204 202 201 193 189 189 193 194 199 199 204 210 212 212 202 187 182 174 165 153 149 152 162 166 170 175 178 184 187 188 194 203 212 217 214 216 210 214 225 218 239 243 241 247 253 263 265 271 277 277 292 287 292 286 299 296 295 293 295
308 307 304 303 288 251 241 244 224 198 193 181 192 184 175 150 178 186 179 188 193 198 193 194 197 198 204 205 198 189 188 192 191 189 190 194 200 204 208 211 200 184 184 164 149 154 155 153 150 148 144 162 173 175 171 164 185 210 217 215 215 212 212 206 212 215 229 235 246 249 256 263 283 297 284 293 293 285 271 280 290 285 295 286 287
319 313 307 302 292 267 253 239 227 196 201 186 179 174 186 185 180 185 177 189 190 193 191 197 199 197 202 199 191 190 196 198 196 191 187 188 192 194 198 198 194 193 183 179 169 145 138 132 132 129 139 126 133 101 156 164 200 208 220 217 223 221 218 215 216 220 232 230 252 272 285 277 280 269 280 285 279 282 282 288 279 290 290 303 301
320 311 305 298 288 268 251 242 211 194 188 202 209 196 181 169 193 209 207 197 196 190 189 201 201 200 192 189 182 191 201 207 208 187 185 183 185 188 193 193 186 193 197 175 142 127 130 139 154 146 155 191 183 190 196 204 223 216 227 223 220 215 215 198 211 222 225 218 237 242 257 268 271 269 276 294 284 282 290 289 280 277 294 275 274
322 315 310 300 292 281 255 247 228 221 209 206 208 215 218 209 208 204 205 193 197 203 193 199 196 185 190 203 195 194 204 210 163 171 181 182 185 187 187 185 191 190 173 164 155 150 165 166 178 196 203 211 216 221 221 213 223 225 230 221 210 206 211 212 217 226 214 211 226 234 254 258 267 269 279 274 289 284 279 272 281 289 294 292 293
316 310 309 302 297 287 269 254 229 214 210 207 200 201 199 210 215 220 215 203 201 202 200 203 188 189 187 193 198 207 170 161 170 176 179 180 181 187 190 189 182 172 155 145 153 174 177 187 202 204 208 204 219 222 216 208 222 223 230 216 216 212 215 210 224 215 218 221 226 227 240 241 255 264 268 270 276 285 290 280 273 282 274 286 287
312 309 306 303 302 294 269 250 217 196 201 194 192 191 194 190 201 204 202 195 195 198 201 201 200 194 194 192 184 195 186 168 169 177 182 183 184 182 177 177 179 169 164 159 162 180 183 195 202 207 197 209 223 221 212 219 218 217 214 213 235 216 211 227 223 194 214 209 226 237 235 238 242 257 258 265 271 277 283 289 286 284 288 278 276
311 306 304 303 303 298 274 253 220 207 199 193 195 193 192 193 176 169 197 198 196 197 203 205 203 203 197 194 190 183 183 173 177 182 185 188 185 183 175 167 170 164 152 164 188 188 195 200 207 204 198 215 215 210 219 214 216 213 204 216 232 218 207 226 163 171 202 210 216 231 235 238 244 256 263 267 272 278 283 285 286 284 282 294 292
308 304 306 306 306 301 285 248 227 216 206 199 199 195 199 191 187 172 157 169 196 207 208 206 207 209 205 196 194 191 183 181 183 184 183 185 187 182 174 182 175 168 170 184 192 205 194 199 207 213 211 211 208 199 214 214 208 212 211 224 233 239 235 186 172 219 218 222 219 236 232 240 234 250 266 268 264 266 279 276 285 296 300 291 297
310 304 302 303 303 299 287 257 235 213 202 196 191 191 192 183 178 175 178 175 177 181 183 199 205 206 200 196 193 193 184 186 186 181 181 183 186 179 170 171 176 184 191 208 206 209 205 202 210 211 203 207 211 195 212 208 202 206 216 222 228 229 232 213 222 220 222 223 223 231 229 232 240 233 239 258 278 284 279 287 286 281 289 300 299
315 313 314 314 309 300 284 271 236 209 208 199 179 172 160 168 177 181 176 184 187 181 185 189 190 199 195 194 192 191 184 180 180 177 183 181 177 161 163 177 177 191 197 202 207 209 211 215 210 210 193 209 195 198 207 202 209 211 212 204 217 215 212 219 221 219 223 211 219 222 227 236 231 240 251 251 242 256 271 280 285 286 280 284 292
319 319 322 319 316 303 305 305 275 169 143 135 146 147 155 161 162 162 176 181 185 181 177 165 155 174 189 192 187 187 180 178 182 178 176 175 168 166 177 179 188 185 194 200 201 206 211 217 203 193 189 200 201 202 190 207 206 206 206 208 212 211 223 216 217 209 208 212 223 222 222 232 238 231 222 252 267 259 266 274 281 283 284 287 295
319 322 321 318 313 311 324 331 44 97 105 124 135 146 155 162 167 174 178 182 179 174 176 173 175 174 165 172 170 172 176 176 173 173 170 163 162 177 180 184 183 189 193 196 197 202 213 204 184 197 197 188 196 190 194 210 199 198 209 213 211 222 224 220 219 208 208 208 218 222 220 232 228 228 221 231 257 270 277 277 285 295 295 289 286
325 321 318 313 314 321 358 33 82 115 118 123 144 148 159 152 165 173 181 172 176 178 179 170 173 177 176 157 156 153 153 164 169 167 155 158 169 175 177 174 183 192 193 195 194 199 205 199 195 186 183 189 195 191 193 205 191 204 205 203 220 225 226 223 221 214 207 218 229 223 215 231 233 223 215 226 253 258 270 278 278 281 295 301 294
327 328 325 321 323 342 16 33 66 139 128 138 146 143 143 162 180 189 176 169 178 178 173 175 175 174 158 150 156 160 166 164 162 151 153 162 172 174 171 177 184 190 190 190 190 194 194 196 179 186 192 195 193 196 195 196 200 204 192 202 208 219 221 212 213 202 214 215 217 218 212 224 231 215 225 223 239 251 263 274 275 278 279 284 291
324 322 320 319 326 335 15 32 26 131 141 151 138 151 167 163 186 172 169 179 173 174 166 174 172 157 151 162 163 164 159 158 152 152 162 167 171 174 182 183 184 188 190 187 187 185 187 179 180 186 188 193 191 191 192 193 198 192 202 210 212 223 220 215 209 211 214 208 214 217 223 220 216 198 233 249 241 254 256 270 280 282 283 282 286
321 324 320 316 319 321 335 2 345 68 115 142 152 155 144 179 167 171 174 170 166 165 148 162 161 139 151 162 166 166 158 150 150 156 164 173 174 185 188 191 189 191 186 187 180 178 174 176 180 182 188 190 184 191 178 194 198 203 206 207 212 219 217 218 208 208 204 210 215 217 219 213 212 214 224 241 253 261 270 270 267 279 283 285 289
319 320 319 313 314 305 321 344 71 110 182 189 188 161 162 153 160 164 173 166 165 162 150 155 152 136 158 168 168 172 155 154 163 166 169 173 180 184 188 195 190 181 173 165 164 163 167 173 181 188 193 193 188 183 188 202 194 199 200 207 210 210 217 214 208 211 208 207 217 217 214 216 219 221 230 250 252 261 263 271 284 280 282 288 292
318 319 317 316 312 315 330 86 78 292 248 127 87 163 161 151 156 160 168 168 167 162 146 156 150 142 143 153 159 176 181 164 167 168 169 175 182 186 188 184 164 158 162 159 161 158 162 172 186 191 191 191 187 187 198 196 180 189 194 199 205 209 210 212 210 210 197 202 210 210 214 213 213 215 232 249 244 258 273 279 280 285 291 290 292
321 322 320 314 318 306 310 351 100 74 73 93 179 148 150 158 173 180 173 173 163 163 154 155 151 135 139 156 172 183 188 172 163 168 176 182 186 188 179 171 171 172 166 167 163 161 170 176 179 179 195 204 191 196 205 198 194 199 195 187 188 202 208 210 215 201 181 182 195 200 202 199 215 216 230 247 237 241 263 268 277 294 299 293 299
320 320 316 313 308 306 318 306 86 133 217 209 179 170 209 205 190 181 178 168 167 169 161 157 160 150 156 167 174 182 188 182 177 181 182 184 185 181 175 173 168 170 172 171 171 180 183 182 183 192 203 201 194 208 210 206 205 211 207 204 199 200 205 194 168 156 173 180 184 190 191 193 211 214 224 232 239 237 246 268 271 265 272 287 291
317 312 320 302 310 301 310 311 273 198 203 222 220 232 201 197 191 182 178 174 169 172 175 168 166 167 164 169 175 185 188 195 193 185 189 186 180 173 165 163 166 167 169 172 177 185 189 193 198 199 203 199 193 203 209 210 211 209 205 205 199 186 171 162 166 172 179 186 173 164 178 186 207 221 233 236 242 245 259 266 265 279 282 284 291
316 313 311 305 304 294 287 265 269 268 204 208 237 236 207 196 183 188 190 178 175 180 184 176 171 171 164 171 173 180 187 195 198 198 186 181 181 171 168 168 174 176 168 177 191 192 194 198 199 195 195 194 197 204 209 205 204 199 199 191 188 185 172 165 173 181 174 165 170 172 168 182 205 211 225 218 236 246 262 274 283 285 285 289 290
316 315 310 313 300 299 283 286 256 244 243 231 208 213 209 194 203 200 194 185 183 186 188 187 181 167 172 173 170 178 180 188 198 197 195 189 176 173 173 175 170 169 176 196 197 201 204 202 193 192 194 197 195 199 199 195 191 192 190 189 191 185 177 176 175 184 171 163 164 160 153 164 189 214 222 233 242 240 247 266 269 276 287 289 288
318 314 305 307 300 296 290 280 264 255 263 239 219 211 213 209 221 207 203 193 195 192 194 190 186 170 168 169 173 178 180 191 200 199 195 187 183 175 171 169 173 179 190 204 204 203 202 198 191 193 195 196 194 199 195 192 189 184 184 187 189 182 182 185 184 173 168 169 168 169 168 183 195 214 225 233 243 250 261 265 267 277 286 292 293
323 316 306 302 297 300 293 284 274 259 251 228 232 217 213 212 223 212 207 206 205 200 195 193 183 169 170 175 176 181 189 194 194 190 187 186 186 178 176 178 186 194 203 207 206 199 193 188 192 194 193 192 195 195 197 193 185 181 182 181 182 182 185 180 178 181 175 161 155 148 157 174 199 225 247 243 234 233 245 257 274 279 286 284 293